Location: Cella
(44.7333°N, 10.5667°E)
Time: 16:19:55
(UTC+00:00)

Cosmos 1486 Rocket - Pass Details

Date: 03 March 2021
Orbit: 758 x 784 km, 74.1° (Epoch: 11 April)

Event Time Altitude Azimuth Distance (km) Brightness Sun altitude
Rises 17:52:48 0° 339° (NNW) 3,255 7.5 -8.7°
Reaches altitude 10° 17:55:11 10° 340° (NNW) 2,328 6.8 -9.1°
Maximum altitude 18:00:30 85° 70° (ENE) 786 4.0 -10.1°
Drops below altitude 10° 18:05:48 10° 159° (SSE) 2,328 6.3 -11.0°
Sets 18:08:11 0° 159° (SSE) 3,254 7.0 -11.4°
